RH
94 91 89 87 83 83 79 77 77 76 76 81 78 73 67 65 59 51 45 38 33 29 27 25 25 29 28 26 25 26 28 30 30 30 28 30 33 34
92 91 89 89 86 79 85 86 92 83 71 77 77 75 69 61 52 45 39 33 29 28 25 23 26 26 25 25 28 30 32 32 32 32 33 33 34 35
89 92 89 89 83 86 82 92 82 89 85 78 74 66 56 47 41 35 30 29 26 23 19 17 23 24 24 27 28 32 34 33 33 33 34 35 36 37
92 89 94 90 89 94 96 85 85 84 79 69 57 48 43 38 32 30 28 26 22 18 16 16 22 21 25 28 28 29 32 33 34 34 34 35 34 37
93 96 91 96 90 96 96 87 75 70 60 50 44 40 35 32 31 27 25 22 17 14 16 20 22 24 25 29 30 32 30 30 30 31 33 32 31 32
97 91 87 96 94 91 79 68 60 52 45 42 37 33 32 29 27 25 22 18 16 18 20 25 27 27 28 30 30 30 30 30 30 35 35 35 35 35
97 96 96 90 81 70 62 56 51 44 37 32 31 30 28 26 25 22 19 19 22 26 26 27 29 30 34 35 35 36 36 36 37 42 43 47 47 46
94 90 81 70 62 52 44 38 32 30 28 29 29 27 25 24 22 19 26 31 31 31 30 29 36 35 38 39 42 43 45 46 47 53 53 52 50 49
82 70 60 51 44 38 34 30 26 24 26 27 26 25 23 21 25 33 36 36 37 38 42 35 42 41 46 48 53 54 57 60 63 64 62 58 55 54
60 52 44 39 34 29 25 25 25 22 23 22 21 20 23 32 36 38 40 40 43 49 60 50 58 59 63 66 71 77 80 80 77 73 67 62 60 60
43 36 30 28 24 20 25 25 23 20 19 17 18 27 33 37 40 42 48 53 51 54 58 57 55 57 64 70 77 79 81 83 79 73 67 62 61 63
26 24 22 18 20 24 25 23 18 14 15 20 31 35 40 44 52 57 57 57 53 45 51 57 58 67 56 63 73 76 76 78 76 71 66 64 65 64
20 17 16 17 23 21 19 16 14 21 29 33 38 42 50 57 58 61 58 51 51 52 56 61 58 63 68 62 62 66 69 69 66 64 68 67 63 61
16 16 15 12 11 12 13 15 24 32 37 41 46 55 58 57 64 60 52 53 57 60 61 68 66 68 67 64 61 61 64 66 67 65 67 68 73 75
15 12 11 11 12 13 16 24 35 40 44 54 59 57 58 67 68 60 57 58 58 62 66 68 69 72 75 76 76 75 74 76 82 83 84 84 81 77
11 11 12 12 13 17 29 40 44 51 57 58 57 61 68 71 71 69 66 66 64 65 72 77 81 86 88 88 87 81 85 86 85 87 85 85 85 84
12 12 13 15 20 35 42 47 53 56 57 59 62 67 72 73 74 73 74 76 78 80 82 88 93 95 96 93 87 85 81 81 82 84 85 84 84 84
12 13 15 23 39 44 49 54 57 58 60 61 65 71 75 75 73 74 77 82 85 87 87 88 89 89 89 89 92 87 83 80 85 89 88 85 84 85
13 16 26 39 44 48 53 56 58 61 62 64 67 70 75 76 76 76 79 84 87 90 91 93 91 91 87 86 89 96 86 86 87 89 90 91 88 86
18 26 38 43 46 49 53 55 57 62 65 67 70 74 76 77 77 78 82 85 89 91 93 95 96 94 92 91 90 91 95 90 92 92 92 93 91 87
25 37 42 46 48 50 53 55 57 59 64 69 70 70 74 75 74 77 82 87 92 96 95 94 96 98 98 97 95 94 95 97 96 93 89 89 84 84
34 42 44 48 50 51 52 54 56 58 60 64 69 68 68 72 74 77 79 82 88 94 95 95 95 97 98 97 96 95 93 91 90 94 96 98 96 91
40 45 48 49 51 52 53 55 57 58 61 62 64 68 69 68 74 78 74 77 85 92 95 93 94 97 97 98 98 95 93 90 88 89 91 92 90 96